Вернуться в каталог

SL-8 R/B

АктивенLEO
NORAD 9023·ROCKET BODY·🇷🇺 Russia

Запущен Jul 15, 1976 с Plesetsk Cosmodrome

Loading…

Ближайшие Пролёты (ближайшие 24 часа)

TLE

СвежийSource: Space-Track

Эпоха: Sep 14, 2026, 05:34 UTC

1 09023U 76069B   26257.23259891  .00000143  00000-0  52372-4 0  9994
2 09023  74.0445 340.9260 0016591  28.6048 331.6015 14.41262415630507

Отслеживайте SL-8 R/B в реальном времени с AllMySat

Download on the App Store